CHIBUOYS 000
TTAA00 KLOT 030215

MARINE OBSERVATIONS FOR LAKE MICHIGAN
NATIONAL WEATHER SERVICE CHICAGO/ROMEOVILLE IL
900 PM CDT TUE SEP 02 2014


...COASTAL INLAND STATIONS ETC...
  
CITY           SKY/WX    TMP DP  RH WIND       PRES   REMARKS
GARY AIRPORT   NOT AVBL                                               
CHICAGO MIDWAY PTCLDY    75  59  57 W5        29.92R                  
WHEELING       CLEAR     75  60  59 W3        29.94R                  
WAUKEGAN       CLEAR     65  61  87 CALM      29.92R                  
KENOSHA        CLEAR     63  60  90 CALM      29.93R                  
RACINE         CLEAR     69  59  70 W5        29.94R                  
MILWAUKEE      PTCLDY    69  57  65 CALM      29.92R                  
BENTON HARBOR  CLEAR     66  63  90 CALM      29.93R                  

...BUOY REPORTS...
  
STATION/POSITION SKY/WX   TEMP    WIND        VSBY  WAVE
                          AIR SEA DIR/SP/G          HT/PER
                          (F)     (DEG/KT/KT) (MI)  (FT/S)
45002 45.3N 86.4           66 65  220/ 10/ 12         2/ 4
45007 42.7N 87.0           72 72  160/  6/  8         0
45170 41.8N 87.0           73 73  150/  4/  6         0
45029 42.9N 86.3           71 70  190/  4/  6         1
45161 43.2N 86.4 NOT AVBL
45024 44.0N 86.6           69 69  210/ 10/ 12         1/ 4

...LAKESIDE REPORTS...
  
STATION/POSITION SKY/WX   TEMP    WIND        VSBY  WAVE
                          AIR SEA DIR/SP/G          HT/PER
                          (F)     (DEG/KT/KT) (MI)  (FT/S)
WAUKEGAN HARBOR            73     300/  3/  4
CHICAGO CRIB               72     160/  7/ 10
BURNHAM HARBOR             76     290/  3/  6
CALUMET                    74      CALM  /  1
BURNS HARBOR     NOT AVBL
MICHIGAN CITY              73     120/  6/  6
ST. JOSEPH                 69        CALM
SOUTH HAVEN      NOT AVBL
HOLLAND          NOT AVBL
MUSKEGON                   71     230/  6/  6
LUDINGTON                  69     190/  4/  6
BIG SABLE LIGHT            68     190/  6/  9
MANISTEE HARBOR  NOT AVBL
GRAND TRAVERSE L           66     240/ 11/ 14
MACKINAW CITY    NOT AVBL
NAUBINWAY        NOT AVBL
PORT INLAND                62      CALM  /  2
FAIRPORT         NOT AVBL
NORTHPORT PIER             65     200/  3/  5
SISTER BAY       NOT AVBL
ALGOMA           NOT AVBL
KEWAUNEE         NOT AVBL
SHEBOYGAN                  67 50  220/  4/  4
PORT WASHINGTON  NOT AVBL
MILWAUKEE                  68     200/  1/  1
KENOSHA                    72     290/  5/  7
$$
  

USA.gov is the U.S. government's official web portal to all federal, state and local government web resources and services.
  • Web Site Owner:
  • National Weather Service
  • Chicago, IL Weather Forecast Office
  • 333 West University Drive
  • Romeoville, IL 60446
  • 815-834-1435 8am-8pm
  • Page Author: LOT Webmaster
  • Web Master's E-mail: w-lot.webmaster@noaa.gov
  • Page last modified: 2-Sep-2010 4:41 PM UTC